Flag for France Weather past 2 weeks in Ajaccio, Corsica, France

Now
64 °F

Mild.


Feels Like: 64 °F
Forecast: 53 / 69 °F
Wind: 3 mph from Northeast

Location: Ajaccio Airport

Current Time: May 6, 2015 at 4:33:50 AM

Latest Report: May 6, 2015 at 4:00 AM


Visibility: N/A

Pressure: 29.92 "Hg

Humidity: 88%

Dew point: 61 °F

Location of AjaccioLocation

Historic Weather in Ajaccio — Graph

°F

Ajaccio temperature yesterday

Maximum temperature yesterday: 86 °F (at 9:30 AM)
Minimum temperature yesterday: 63 °F (at 3:00 AM)
Average temperature yesterday: 70 °F

Past Weeks' High & Low Weather Summary

 TemperatureHumidityPressure
High86 °F (May 5, 9:30 AM)100% (Apr 21, 5:00 AM)30.27 "Hg (Apr 21, 5:00 AM)
Low45 °F (Apr 21, 5:00 AM)29% (May 5, 9:30 AM)29.53 "Hg (Apr 28, 3:30 AM)
Average62 °F73%29.96 "Hg
* Reported Apr 21 3:00 AM — May 6 3:30 AM, Ajaccio, Weather by CustomWeather, © 2015

Note: Actual official high and low records may vary slightly from our data, if they occured in-between our weather recording intervals... More about our weather records

Advertising

Ajaccio weather history for previous 24 hours

 ConditionsComfort  
Time TempWeatherWind HumidityBarometerVisibility
3:30 AM
Wed, May 6
64 °FPassing clouds.2 mph94%29.95 "HgN/A
3:00 AM64 °FMild.5 mph94%29.92 "HgN/A
2:30 AM64 °FMild.9 mph94%29.92 "HgN/A
2:00 AM66 °FMild.12 mph88%29.92 "HgN/A
1:30 AM64 °FMild.8 mph88%29.89 "HgN/A
1:00 AM64 °FMild.5 mph83%29.89 "HgN/A
12:30 AM64 °FMild.7 mph88%29.89 "HgN/A
12:00 AM64 °FMild.6 mph88%29.92 "Hg6 mi
11:30 PM
Tue, May 5
64 °FPassing clouds.6 mph94%29.92 "HgN/A
11:00 PM64 °FLow clouds.2 mph94%29.92 "HgN/A
10:30 PM66 °FMild.5 mph88%29.92 "HgN/A
10:00 PM66 °FMild.10 mph94%29.92 "HgN/A
9:30 PM66 °FMild.10 mph94%29.89 "HgN/A
9:00 PM66 °FMild.7 mph94%29.89 "HgN/A
8:30 PM66 °FMild.3 mph83%29.86 "HgN/A
8:00 PM68 °FMild.No wind83%29.86 "HgN/A
7:30 PM68 °FMild.No wind83%29.86 "HgN/A
7:00 PM70 °FMild.5 mph78%29.86 "HgN/A
6:30 PM72 °FMild.6 mph73%29.86 "HgN/A
6:00 PM72 °FSunny.9 mph73%29.86 "Hg10 mi
5:30 PM75 °FSunny.3 mph61%29.86 "Hg10 mi
5:00 PM75 °FSunny.6 mph61%29.86 "Hg10 mi
4:30 PM77 °FPassing clouds.5 mph54%29.86 "HgN/A
4:00 PM75 °FSunny.9 mph61%29.86 "Hg10 mi
3:30 PM77 °FPassing clouds.6 mph61%29.86 "HgN/A
3:00 PM79 °FPassing clouds.5 mph54%29.83 "HgN/A
2:30 PM79 °FPassing clouds.6 mph51%29.83 "HgN/A
2:00 PM79 °FPassing clouds.6 mph51%29.83 "HgN/A
1:30 PM79 °FPassing clouds.5 mph51%29.83 "HgN/A
1:00 PM75 °FSunny.8 mph61%29.83 "Hg10 mi
12:30 PM73 °FPassing clouds.7 mph74%29.83 "HgN/A
12:00 PM75 °FPassing clouds.5 mph65%29.83 "HgN/A
11:30 AM73 °FPassing clouds.3 mph69%29.83 "HgN/A
11:00 AM72 °FPassing clouds.6 mph73%29.80 "HgN/A
10:30 AM72 °FSunny.14 mph73%29.80 "Hg10 mi
10:00 AM86 °FPassing clouds.3 mph33%29.77 "HgN/A
9:30 AM86 °FSunny.2 mph29%29.77 "Hg10 mi
9:00 AM79 °FPassing clouds.8 mph39%29.74 "HgN/A
8:30 AM72 °FSunny.9 mph53%29.77 "Hg10 mi
8:00 AM66 °FPassing clouds.7 mph60%29.77 "HgN/A
7:30 AM66 °FPassing clouds.3 mph78%29.77 "HgN/A
7:00 AM66 °FClear.2 mph78%29.77 "Hg10 mi
6:30 AM66 °FClear.7 mph64%29.77 "Hg10 mi
6:00 AM68 °FClear.12 mph53%29.77 "Hg10 mi
5:30 AM66 °FClear.9 mph56%29.77 "Hg10 mi
5:00 AM66 °FClear.8 mph60%29.77 "Hg10 mi
4:30 AM66 °FPassing clouds.6 mph56%29.74 "HgN/A
4:00 AM66 °FClear.8 mph60%29.74 "Hg10 mi
Weather by CustomWeather, © 2015

See weather overviewHow to use our weather pages